Tracking 27126 objects as of 30-Mar-2023
HD Live streaming from Space Station
objects crossing your sky now

COSMOS 970 DEB

Track COSMOS 970 DEB now!
10-day predictions


NORAD ID: 10882
Int'l Code: 1977-121AD
Perigee: 881.9 km
Apogee: 1,089.8 km
Inclination: 65.8 °
Period: 104.7 minutes
Semi major axis: 7356 km
RCS: 0.0585 m2 (small)
Launch date: December 21, 1977
Source: Commonwealth of Independent States (former USSR) (CIS)
Launch site: TYURATAM MISSILE AND SPACE COMPLEX (TTMTR)

Note: This is SATELLITE DEBRIS
Your satellite tracking list
Your tracking list is empty




NASA's NSSDC Master Catalog

Two Line Element Set (TLE):
1 10882U 77121AD  23088.35860374  .00001136  00000-0  11677-2 0  9999
2 10882  65.8243  67.1251 0141282 336.9096  22.5656 13.75833793264530
Source of the keplerian elements: AFSPC